Location: Unspecified
(0.0000°N, 0.0000°E)
Time: 14:54:27
(UTC+02:00)

H-2A R/B - Visible Passes

Search period start: 26 September 2017 00:00
Search period end: 06 October 2017 00:00
Orbit: 270 x 33063 km, 28.5° (Epoch: 25 September)

Date Brightness Start Highest point End Pass type
(mag) Time Alt. Az. Time Alt. Az. Time Alt. Az.
26 Sep 5.1 06:49:32 17° W 08:14:44 43° NW 15:40:03 10° SE visible
27 Sep 7.1 02:10:29 56° E 02:10:29 56° E 10:40:15 10° ENE visible
28 Sep 4.9 07:11:56 10° W 08:43:35 36° WNW 16:02:09 10° SE visible
29 Sep 7.0 02:32:52 66° ENE 02:32:52 66° ENE 11:05:13 10° E visible
01 Oct 7.0 02:55:13 74° ENE 02:55:13 74° ENE 11:29:29 10° E visible
03 Oct 7.0 03:17:34 79° NNE 03:17:34 79° NNE 11:53:11 10° E visible
05 Oct 7.0 03:39:53 76° NNW 03:40:15 76° NNW 12:16:25 10° E visible
